Regional Weather Roundup
Issued by NWS Sioux Falls, SD

Home | Current Version | Previous Version | Text Only | Print | Product List | Glossary Off
Versions: 1 2 3 4 5 6 7 8 9 10 11 12 13 14 15 16 17 18 19 20 21 22 23 24 25 26 27 28 29 30 31 32 33 34 35 36 37 38 39 40 41 42 43 44 45 46 47 48 49 50

000
ASUS43 KFSD 211110
RWRFSD

WEATHER ROUNDUP FOR SE SOUTH DAKOTA/SW MINNESOTA/NW IOWA
NATIONAL WEATHER SERVICE SIOUX FALLS SD
600 AM CDT WED APR 21 2021

NOTE: "FAIR" INDICATES FEW OR NO CLOUDS BELOW 12,000 FEET WITH NO
SIGNIFICANT WEATHER AND OR OBSTRUCTIONS TO VISIBILITY.


SDZ038>040-050-052>070-211200-
SOUTHEAST SOUTH DAKOTA

CITY           SKY/WX    TMP DP  RH WIND       PRES   REMARKS
BROOKINGS      PTCLDY    14  10  84 NW3       30.22S
CHAMBERLAIN    CLOUDY    25  25  99 W8        30.28S WCI  16
HURON          PTCLDY    19  17  92 W5        30.27R WCI  12
MITCHELL       MOCLDY    20  16  84 W7        30.28S WCI  11
SIOUX FALLS    PTCLDY    21  14  74 NW8       30.24R WCI  11
WINNER         CLOUDY    25  19  78 SW5       30.27F WCI  19
YANKTON        CLEAR     23  20  88 NW9       30.27S WCI  13
$$

MNZ071-072-080-081-089-090-097-098-211200-
SOUTHWEST MINNESOTA

CITY           SKY/WX    TMP DP  RH WIND       PRES   REMARKS
FAIRMONT       MOCLDY    27  15  61 NW12      30.18S WCI  17
JACKSON        PTCLDY    27  14  59 NW12      30.19R WCI  16
LUVERNE        PTCLDY    18  12  79 NW8       30.24R WCI   7
MARSHALL       CLEAR     20  12  71 W8        30.22S WCI  10
MONTEVIDEO     CLEAR     21  12  68 NW5       30.22S WCI  15
PIPESTONE      PTCLDY    18  12  79 N6        30.20S WCI   9
REDWOOD FALLS  CLEAR     21  13  71 W8        30.21R WCI  11
TRACY          CLEAR     23  11  61 NW8       30.21S WCI  14
WINDOM         CLEAR     21  12  68 NW8       30.19R WCI  12
WORTHINGTON    PTCLDY    20  13  74 NW12      30.20S WCI   8
$$

IAZ001>003-012>014-020>022-031-032-NEZ013-014-SDZ071-211200-
NORTHWEST IOWA

CITY           SKY/WX    TMP DP  RH WIND       PRES   REMARKS
CHEROKEE       CLOUDY    29  26  86 N9        30.20R WCI  21
DENISON        CLOUDY    32  32 100 NW9       30.18R WCI  24
ESTHERVILLE    MOCLDY    25  13  60 NW13      30.18R WCI  14
LE MARS        CLOUDY    28  23  80 N8        30.22R WCI  20
MAURICE        CLOUDY    27  27 100 NW9       30.22R WCI  17
SHELDON        CLOUDY    25  21  86 N9        30.20R WCI  15
SIOUX CITY     CLOUDY    30  24  78 N12       30.24R WCI  20
SPENCER        CLOUDY    29  18  63 N13       30.20R WCI  19
STORM LAKE     CLOUDY    28  28 100 N14       30.18R WCI  17
$$

ABBREVIATIONS USED IN REMARKS
   TC - TEMPERATURE IN CELSIUS
  WCI - WIND CHILL INDEX
   HX - HEAT INDEX
  VSB - VISIBILITY




USA.gov is the U.S. government's official web portal to all federal, state and local government web resources and services.